Location: UBC Liquid-Mirror Observatory
(49.2876°N, 122.5728°W)
Time: 01:01:34
(UTC-08:00)

Amateur Radio Satellites - All Passes

Search period start: 25 February 2017 00:31
Search period end: 26 February 2017 00:31
Location: UBC Liquid-Mirror Observatory, 49.2876°N, 122.5728°W

Satellite Date Start Highest point End Downlink Frequencies (MHz)
Time Altitude Azimuth
YUBILEINY 25 Feb 00:32:26 00:34:23 11° 294° (WNW) 00:36:19 435.215
DUCHIFAT 1 25 Feb 00:35:30 00:39:44 62° 287° (WNW) 00:43:57 145.980
EO-79 25 Feb 00:45:55 00:49:59 42° 291° (WNW) 00:54:01 145.935-145.965
50 SAT 25 Feb 00:46:38 00:48:47 15° 268° (W) 00:50:57 437.505
Oscar 19 25 Feb 00:49:45 00:53:53 24° 92° (E) 00:57:59 437.125/150
SO-50 25 Feb 00:53:25 00:57:02 22° 331° (NNW) 01:00:37 436.795
NANOSAT C BR1 25 Feb 01:03:23 01:07:11 31° 294° (WNW) 01:10:58 145.865
POLYITAN 1 25 Feb 01:03:32 01:07:17 30° 295° (WNW) 01:11:01 437.675
QB50P2 25 Feb 01:06:36 01:10:12 26° 296° (WNW) 01:13:47 145.880/145.840
FO-29 25 Feb 01:08:02 01:13:59 25° 309° (NW) 01:19:40 435.910
AIST 2D 25 Feb 01:14:48 01:15:50 11° 301° (WNW) 01:16:52 435.315
DX 1 25 Feb 01:20:40 01:23:16 15° 270° (W) 01:25:52 434.975-435.025
ITUPSAT 1 25 Feb 01:23:47 01:28:19 42° 67° (ENE) 01:32:52 437.325
BEESAT 25 Feb 01:30:33 01:35:09 49° 69° (ENE) 01:39:48 436.000
Gurwin Techsat 1B 25 Feb 01:30:56 01:35:42 32° 95° (E) 01:40:25 435.225
UKube-1 25 Feb 01:33:37 01:36:10 15° 270° (W) 01:38:45 .
PCSat 25 Feb 01:34:14 01:39:34 57° 241° (WSW) 01:44:52 145.827
BUGSAT 1 25 Feb 01:34:28 01:38:28 42° 291° (WNW) 01:42:29 437.445
MOZHAYETS 4 25 Feb 01:55:23 01:59:30 32° 65° (ENE) 02:03:38
Oscar 19 25 Feb 02:28:31 02:33:31 54° 291° (WNW) 02:38:29 437.125/150
KKS-1 25 Feb 02:29:48 02:33:09 21° 61° (ENE) 02:36:31 437.445
SO-50 25 Feb 02:37:22 02:39:10 12° 355° (N) 02:40:57 436.795
AO-7 25 Feb 02:40:02 02:46:40 26° 91° (E) 02:53:15 .
RS-15 25 Feb 02:43:39 02:55:52 70° 240° (WSW) 03:07:36 29.354- 29.394
CUBESAT XI-V 25 Feb 02:54:21 02:58:01 23° 62° (ENE) 03:01:39 437.345
ITAMSAT 1 25 Feb 03:01:21 03:06:15 38° 97° (E) 03:11:06 435.822/435.867
ITUPSAT 1 25 Feb 03:02:11 03:06:17 28° 266° (W) 03:10:26 437.325
STARS 25 Feb 03:04:45 03:08:07 22° 61° (ENE) 03:11:31 437.465
BEESAT 25 Feb 03:09:21 03:13:12 24° 267° (W) 03:17:04 436.000
Gurwin Techsat 1B 25 Feb 03:10:45 03:15:46 43° 294° (WNW) 03:20:46 435.225
AO-85 25 Feb 03:17:57 03:18:42 10° 110° (ESE) 03:19:27 145.980
MOZHAYETS 4 25 Feb 03:32:22 03:36:37 35° 264° (W) 03:40:54
M-CUBED/EXP-1 PRIME 25 Feb 03:38:39 03:41:36 33° 63° (ENE) 03:44:36 437.505
KKS-1 25 Feb 04:05:05 04:09:24 51° 260° (W) 04:13:46 437.445
Oscar 19 25 Feb 04:11:00 04:11:45 10° 311° (NW) 04:12:30 437.125/150
SO-50 25 Feb 04:18:37 04:21:29 16° 20° (NNE) 04:24:21 436.795
CUBESAT XI-V 25 Feb 04:30:34 04:35:06 51° 261° (W) 04:39:39 437.345
AO-7 25 Feb 04:32:02 04:40:24 84° 292° (WNW) 04:48:42 .
STARS 25 Feb 04:39:57 04:44:11 48° 260° (W) 04:48:28 437.465
ITAMSAT 1 25 Feb 04:40:55 04:45:40 36° 296° (WNW) 04:50:24 435.822/435.867
STRAND 1 25 Feb 04:51:14 04:54:04 15° 53° (NE) 04:56:54 437.568
AO-85 25 Feb 04:54:00 04:58:28 73° 126° (SE) 05:02:38 145.980
RS-15 25 Feb 04:58:06 05:05:55 20° 264° (W) 05:13:34 29.354- 29.394
M-CUBED/EXP-1 PRIME 25 Feb 05:13:59 05:16:15 17° 261° (W) 05:18:32 437.505
CUTE-I 25 Feb 05:47:04 05:51:41 28° 94° (E) 05:56:16 437.470
KAITUO 1B 25 Feb 05:57:23 06:00:40 27° 95° (E) 06:03:54 145.475/437.950
SO-50 25 Feb 05:58:36 06:03:01 49° 43° (NE) 06:07:22 436.795
XW-2F 25 Feb 06:01:37 06:05:10 35° 97° (E) 06:08:40 145.980 - 146.000
XW-2D 25 Feb 06:06:04 06:09:44 42° 98° (E) 06:13:22 145.860 - 145.880
XW-2B 25 Feb 06:11:05 06:14:48 46° 99° (E) 06:18:28 145.730 - 145.750
BEESAT 3 25 Feb 06:11:27 06:14:55 31° 119° (ESE) 06:18:27 437.485
XW-2C 25 Feb 06:19:39 06:23:29 59° 101° (E) 06:27:14 145.795 - 145.815
DOVE 4 25 Feb 06:22:17 06:26:56 70° 102° (ESE) 06:31:51 437.250
AO-7 25 Feb 06:25:39 06:32:08 26° 315° (NW) 06:38:35 .
STRAND 1 25 Feb 06:27:18 06:32:27 80° 73° (ENE) 06:37:39 437.568
NUDT-PHONESAT 25 Feb 06:32:13 06:36:00 68° 102° (ESE) 06:39:44 437.300
AO-85 25 Feb 06:35:49 06:39:16 23° 326° (NNW) 06:42:33 145.980
LilacSat-2 25 Feb 06:36:18 06:40:12 87° 282° (WNW) 06:44:01 437.200
O/OREOS (USA 219) 25 Feb 06:44:51 06:48:02 18° 45° (NE) 06:51:12 437.305
BEESAT 2 25 Feb 06:49:14 06:52:48 32° 119° (ESE) 06:56:24 435.950
CUTE 1.7 + AOD 2 25 Feb 07:00:42 07:04:01 22° 92° (E) 07:07:18 437.475
HO-68 25 Feb 07:15:15 07:21:51 38° 96° (E) 07:28:24 435.675
CUBEBUG 2 25 Feb 07:17:32 07:20:51 18° 89° (E) 07:24:08 437.445
PRISM 25 Feb 07:24:15 07:26:46 16° 60° (ENE) 07:29:17 437.425
CUTE-I 25 Feb 07:26:47 07:31:58 50° 293° (WNW) 07:37:08 437.470
KAITUO 1B 25 Feb 07:31:24 07:34:39 27° 293° (WNW) 07:37:52 145.475/437.950
UNISAT 6 25 Feb 07:33:50 07:35:02 11° 53° (NE) 07:36:14 437.425
TIGRISAT 25 Feb 07:34:41 07:35:24 10° 52° (NE) 07:36:08 435.000
XW-2F 25 Feb 07:36:08 07:39:09 22° 295° (WNW) 07:42:07 145.980 - 146.000
SO-50 25 Feb 07:39:26 07:43:17 28° 243° (WSW) 07:47:05 436.795
XW-2D 25 Feb 07:40:52 07:43:40 20° 297° (WNW) 07:46:27 145.860 - 145.880
XW-2B 25 Feb 07:46:02 07:48:41 18° 297° (WNW) 07:51:20 145.730 - 145.750
XW-2A 25 Feb 07:47:19 07:50:49 79° 285° (WNW) 07:54:16 145.665 - 145.685
AAUSAT CUBESAT 2 25 Feb 07:47:51 07:51:10 23° 93° (E) 07:54:27 437.432
BEESAT 3 25 Feb 07:48:48 07:52:29 37° 319° (NW) 07:56:13 437.485
UWE-3 25 Feb 07:54:49 07:58:45 26° 93° (E) 08:02:37 435.000/436.395/437.385
XW-2C 25 Feb 07:55:00 07:57:16 15° 299° (WNW) 07:59:29 145.795 - 145.815
FO-29 25 Feb 07:55:15 08:00:25 21° 48° (NE) 08:05:45 435.910
SEEDS 25 Feb 07:57:44 08:01:52 55° 100° (E) 08:05:57 437.485
DOVE 4 25 Feb 08:01:03 08:04:13 18° 299° (WNW) 08:07:29 437.250
ISS 25 Feb 08:05:54 08:08:30 21° 142° (SE) 08:11:06 437.550
NUDT-PHONESAT 25 Feb 08:07:36 08:09:27 13° 300° (WNW) 08:11:16 437.300
STRAND 1 25 Feb 08:09:05 08:12:15 16° 272° (W) 08:15:27 437.568
LilacSat-2 25 Feb 08:13:03 08:13:49 10° 303° (WNW) 08:14:33 437.200
ZACube-1 25 Feb 08:16:10 08:19:59 25° 93° (E) 08:23:44 437.345
O/OREOS (USA 219) 25 Feb 08:23:27 08:28:02 81° 245° (WSW) 08:32:37 437.305
BEESAT 2 25 Feb 08:26:50 08:30:33 36° 319° (NW) 08:34:19 435.950
Tancredo 1 25 Feb 08:31:20 08:34:17 33° 148° (SSE) 08:37:17 437.200
CUTE 1.7 + AOD 2 25 Feb 08:36:02 08:40:03 42° 290° (WNW) 08:44:01 437.475
CUBEBUG 2 25 Feb 08:53:10 08:57:53 64° 288° (WNW) 09:02:35 437.445
PRISM 25 Feb 08:57:35 09:01:38 63° 258° (WSW) 09:05:41 437.425
HO-68 25 Feb 09:02:55 09:09:48 53° 297° (WNW) 09:16:40 435.675
AO-73 25 Feb 09:04:15 09:08:49 66° 101° (E) 09:13:17 145.935
UNISAT 6 25 Feb 09:06:20 09:10:49 66° 73° (ENE) 09:15:27 437.425
TIGRISAT 25 Feb 09:06:41 09:11:08 62° 72° (ENE) 09:15:45 435.000
CUTE-I 25 Feb 09:10:13 09:10:49 10° 313° (NW) 09:11:26 437.470
Oscar 11 25 Feb 09:11:08 09:15:28 67° 102° (ESE) 09:19:45 .
DELFI C3 25 Feb 09:20:58 09:24:25 28° 95° (E) 09:27:49 145.870
AAUSAT CUBESAT 2 25 Feb 09:22:56 09:26:46 38° 291° (WNW) 09:30:34 437.432
BEESAT 3 25 Feb 09:29:35 09:31:11 12° 341° (NNW) 09:32:47 437.485
UWE-3 25 Feb 09:30:55 09:35:21 43° 292° (WNW) 09:39:43 435.000/436.395/437.385
SEEDS 25 Feb 09:34:18 09:37:10 18° 299° (WNW) 09:40:02 437.485
FO-29 25 Feb 09:36:51 09:44:05 70° 70° (ENE) 09:51:53 435.910
YUBILEINY 25 Feb 09:41:00 09:49:02 41° 85° (E) 09:57:02 435.215
ISS 25 Feb 09:41:20 09:44:39 88° 163° (SSE) 09:47:57 437.550
ZACube-1 25 Feb 09:52:05 09:56:25 42° 291° (WNW) 10:00:41 437.345
DUCHIFAT 1 25 Feb 09:56:37 09:59:45 21° 62° (ENE) 10:02:55 145.980
AO-85 25 Feb 10:02:11 10:03:25 11° 16° (NNE) 10:04:37 145.980
O/OREOS (USA 219) 25 Feb 10:05:38 10:06:38 11° 264° (W) 10:07:38 437.305
LO-87 25 Feb 10:05:51 10:07:10 12° 89° (E) 10:08:30 145.935 - 145.965
EO-79 25 Feb 10:06:47 10:10:26 29° 65° (ENE) 10:14:08 145.935-145.965
Tancredo 1 25 Feb 10:07:11 10:10:27 71° 346° (NNW) 10:13:42 437.200
BEESAT 2 25 Feb 10:07:49 10:09:27 12° 341° (NNW) 10:11:05 435.950
AIST 2D 25 Feb 10:17:43 10:21:10 50° 72° (ENE) 10:24:39 435.315
NANOSAT C BR1 25 Feb 10:23:27 10:27:21 38° 68° (ENE) 10:31:19 145.865
POLYITAN 1 25 Feb 10:23:53 10:27:53 42° 69° (ENE) 10:31:56 437.675
QB50P2 25 Feb 10:26:46 10:30:50 48° 70° (ENE) 10:34:58 145.880/145.840
CUBEBUG 2 25 Feb 10:32:18 10:33:35 11° 307° (NW) 10:34:52 437.445
Oscar 19 25 Feb 10:36:31 10:37:08 10° 49° (NE) 10:37:45 437.125/150
AO-73 25 Feb 10:41:27 10:44:34 18° 300° (WNW) 10:47:39 145.935
UNISAT 6 25 Feb 10:45:07 10:48:02 17° 272° (W) 10:50:59 437.425
TIGRISAT 25 Feb 10:45:14 10:48:17 18° 271° (W) 10:51:23 435.000
Oscar 11 25 Feb 10:48:22 10:51:08 17° 300° (WNW) 10:53:53 .
HO-68 25 Feb 10:52:23 10:56:01 15° 319° (NW) 10:59:38 435.675
BUGSAT 1 25 Feb 10:53:09 10:56:36 27° 65° (ENE) 11:00:06 437.445
DELFI C3 25 Feb 10:55:47 10:59:11 29° 293° (WNW) 11:02:35 145.870
ESTCUBE 1 25 Feb 11:09:58 11:14:01 32° 96° (E) 11:18:02 437.505/2401.250
ISS 25 Feb 11:18:02 11:21:17 54° 360° (N) 11:24:32 437.550
Gurwin Techsat 1B 25 Feb 11:19:26 11:22:14 15° 52° (NE) 11:25:02 435.225
FO-29 25 Feb 11:23:26 11:29:42 30° 271° (W) 11:36:24 435.910
DUCHIFAT 1 25 Feb 11:31:03 11:35:08 49° 260° (W) 11:39:16 145.980
VELOX 1 25 Feb 11:35:28 11:38:50 21° 92° (E) 11:42:11 145.980
YUBILEINY 25 Feb 11:37:02 11:45:38 54° 288° (WNW) 11:54:14 435.215
LO-87 25 Feb 11:37:28 11:41:01 61° 286° (WNW) 11:44:35 145.935 - 145.965
AO-85 25 Feb 11:41:26 11:45:01 32° 40° (NE) 11:48:35 145.980
EO-79 25 Feb 11:42:19 11:46:08 33° 264° (W) 11:50:01 145.935-145.965
SPROUT 25 Feb 11:43:00 11:46:17 21° 92° (E) 11:49:33 437.525
Tancredo 1 25 Feb 11:43:44 11:46:57 56° 6° (N) 11:50:08 437.200
AIST 2D 25 Feb 11:52:50 11:54:42 14° 270° (W) 11:56:36 435.315
AO-7 25 Feb 11:55:12 12:00:10 18° 36° (NE) 12:05:06 .
NANOSAT C BR1 25 Feb 11:59:44 12:03:12 24° 266° (W) 12:06:42 145.865
POLYITAN 1 25 Feb 12:00:29 12:03:51 23° 267° (W) 12:07:15 437.675
QB50P2 25 Feb 12:03:45 12:06:54 20° 268° (W) 12:10:04 145.880/145.840
50 SAT 25 Feb 12:05:59 12:08:57 25° 95° (E) 12:11:53 437.505
Oscar 19 25 Feb 12:10:22 12:15:22 53° 69° (ENE) 12:20:22 437.125/150
BUGSAT 1 25 Feb 12:28:11 12:31:52 33° 264° (W) 12:35:39 437.445
ITAMSAT 1 25 Feb 12:46:37 12:49:49 17° 54° (NE) 12:53:01 435.822/435.867
ESTCUBE 1 25 Feb 12:46:49 12:50:49 32° 294° (WNW) 12:54:46 437.505/2401.250
BEESAT 3 25 Feb 12:47:03 12:49:49 17° 29° (NNE) 12:52:34 437.485
ISS 25 Feb 12:54:36 12:57:54 87° 208° (SSW) 13:01:12 437.550
Gurwin Techsat 1B 25 Feb 12:56:01 13:01:19 74° 72° (ENE) 13:06:39 435.225
DX 1 25 Feb 13:02:13 13:06:34 67° 102° (ESE) 13:10:54 434.975-435.025
VELOX 1 25 Feb 13:11:17 13:15:33 48° 290° (WNW) 13:19:48 145.980
UKube-1 25 Feb 13:14:03 13:18:22 65° 103° (ESE) 13:22:39 .
SPROUT 25 Feb 13:18:17 13:22:26 47° 290° (WNW) 13:26:34 437.525
Tancredo 1 25 Feb 13:20:05 13:23:18 61° 205° (SSW) 13:26:29 437.200
AO-85 25 Feb 13:21:50 13:25:25 35° 240° (WSW) 13:29:01 145.980
BEESAT 2 25 Feb 13:25:34 13:28:26 18° 29° (NNE) 13:31:18 435.950
50 SAT 25 Feb 13:39:08 13:42:02 25° 293° (WNW) 13:44:55 437.505
YUBILEINY 25 Feb 13:40:22 13:44:57 15° 314° (NW) 13:49:31 435.215
AO-7 25 Feb 13:43:08 13:51:08 53° 59° (ENE) 13:59:09 .
Oscar 19 25 Feb 13:50:48 13:54:59 25° 267° (W) 13:59:11 437.125/150
ITAMSAT 1 25 Feb 14:23:20 14:28:33 87° 75° (ENE) 14:33:50 435.822/435.867
BEESAT 3 25 Feb 14:24:02 14:28:05 77° 50° (NE) 14:32:05 437.485
ISS 25 Feb 14:31:29 14:34:04 21° 218° (SW) 14:36:36 437.550
Gurwin Techsat 1B 25 Feb 14:38:14 14:41:51 18° 271° (W) 14:45:29 435.225
DX 1 25 Feb 14:39:29 14:42:18 17° 301° (WNW) 14:45:06 434.975-435.025
UKube-1 25 Feb 14:51:07 14:53:57 17° 301° (WNW) 14:56:46 .
ITUPSAT 1 25 Feb 14:57:22 15:02:06 55° 100° (E) 15:06:49 437.325
Tancredo 1 25 Feb 14:57:28 14:59:03 13° 223° (SW) 15:00:37 437.200
BEESAT 2 25 Feb 15:02:45 15:06:51 80° 51° (NE) 15:10:54 435.950
BEESAT 25 Feb 15:03:47 15:08:34 65° 102° (ESE) 15:13:19 436.000
RS-15 25 Feb 15:08:00 15:12:43 13° 90° (E) 15:17:28 29.354- 29.394
MOZHAYETS 4 25 Feb 15:22:38 15:27:01 40° 97° (E) 15:31:20
AO-7 25 Feb 15:36:08 15:44:04 45° 261° (W) 15:52:02 .
CUTE-I 25 Feb 15:36:33 15:39:02 13° 51° (NE) 15:41:31 437.470
LilacSat-2 25 Feb 15:51:23 15:51:58 10° 57° (ENE) 15:52:33 437.200
KKS-1 25 Feb 15:52:05 15:55:35 22° 93° (E) 15:59:05 437.445
DOVE 4 25 Feb 15:57:06 15:59:16 14° 58° (ENE) 16:01:27 437.250
BEESAT 3 25 Feb 16:02:57 16:05:09 14° 248° (WSW) 16:07:22 437.485
ITAMSAT 1 25 Feb 16:05:49 16:08:45 15° 273° (W) 16:11:40 435.822/435.867
HO-68 25 Feb 16:06:02 16:08:51 13° 38° (NE) 16:11:39 435.675
PCSat 25 Feb 16:19:32 16:24:49 56° 119° (ESE) 16:30:09 145.827
CUBESAT XI-V 25 Feb 16:22:54 16:26:55 29° 94° (E) 16:30:55 437.345
STARS 25 Feb 16:25:19 16:28:49 22° 93° (E) 16:32:17 437.465
ITUPSAT 1 25 Feb 16:35:52 16:39:36 23° 300° (WNW) 16:43:19 437.325
KAITUO 1B 25 Feb 16:41:28 16:44:37 25° 66° (ENE) 16:47:46 145.475/437.950
BEESAT 2 25 Feb 16:41:58 16:44:04 14° 249° (WSW) 16:46:09 435.950
BEESAT 25 Feb 16:42:27 16:45:54 20° 301° (WNW) 16:49:21 436.000
XW-2F 25 Feb 16:46:24 16:49:51 32° 68° (ENE) 16:53:18 145.980 - 146.000
M-CUBED/EXP-1 PRIME 25 Feb 16:47:25 16:49:25 14° 98° (E) 16:51:28 437.505
XW-2D 25 Feb 16:51:05 16:54:40 37° 69° (ENE) 16:58:17 145.860 - 145.880
XW-2B 25 Feb 16:56:04 16:59:43 41° 70° (ENE) 17:03:23 145.730 - 145.750
MOZHAYETS 4 25 Feb 17:00:06 17:04:01 28° 296° (WNW) 17:07:53
NO-84 25 Feb 17:04:14 17:07:08 29° 136° (SE) 17:10:16 435.350 FM
XW-2C 25 Feb 17:04:36 17:08:21 51° 72° (ENE) 17:12:08 145.795 - 145.815
RS-15 25 Feb 17:10:35 17:22:02 55° 114° (ESE) 17:33:50 29.354- 29.394
CUTE-I 25 Feb 17:12:50 17:18:07 67° 71° (ENE) 17:23:27 437.470
NUDT-PHONESAT 25 Feb 17:15:19 17:19:00 55° 72° (ENE) 17:22:44 437.300
LilacSat-2 25 Feb 17:21:41 17:25:34 83° 75° (ENE) 17:29:29 437.200
KKS-1 25 Feb 17:28:06 17:32:23 47° 291° (WNW) 17:36:41 437.445
DOVE 4 25 Feb 17:32:16 17:36:24 75° 257° (WSW) 17:40:39 437.250
HO-68 25 Feb 17:48:09 17:54:51 45° 61° (ENE) 18:01:33 435.675
CUTE 1.7 + AOD 2 25 Feb 17:57:07 18:00:45 27° 65° (ENE) 18:04:21 437.475
CUBESAT XI-V 25 Feb 18:00:08 18:04:22 37° 293° (WNW) 18:08:34 437.345
STARS 25 Feb 18:01:07 18:05:23 46° 291° (WNW) 18:09:37 437.465
PCSat 25 Feb 18:03:36 18:08:31 33° 320° (NW) 18:13:27 145.827
KAITUO 1B 25 Feb 18:15:07 18:18:32 31° 264° (W) 18:22:00 145.475/437.950
CUBEBUG 2 25 Feb 18:19:26 18:23:03 24° 62° (ENE) 18:26:46 437.445
M-CUBED/EXP-1 PRIME 25 Feb 18:20:30 18:24:10 63° 293° (WNW) 18:28:08 437.505
XW-2F 25 Feb 18:20:52 18:24:02 24° 266° (W) 18:27:15 145.980 - 146.000
XW-2A 25 Feb 18:22:24 18:25:46 65° 74° (ENE) 18:29:11 145.665 - 145.685
XW-2D 25 Feb 18:26:03 18:29:00 21° 267° (W) 18:31:59 145.860 - 145.880
AO-73 25 Feb 18:30:08 18:32:10 13° 56° (NE) 18:34:13 145.935
XW-2B 25 Feb 18:31:18 18:34:06 19° 268° (W) 18:36:57 145.730 - 145.750
STRAND 1 25 Feb 18:34:21 18:38:07 20° 90° (E) 18:41:51 437.568
Oscar 11 25 Feb 18:36:36 18:38:24 12° 56° (ENE) 18:40:12 .
XW-2C 25 Feb 18:40:30 18:42:52 16° 270° (W) 18:45:15 145.795 - 145.815
NO-84 25 Feb 18:41:11 18:44:35 58° 337° (NNW) 18:48:20 435.350 FM
AAUSAT CUBESAT 2 25 Feb 18:41:47 18:45:17 27° 66° (ENE) 18:48:48 437.432
NUDT-PHONESAT 25 Feb 18:51:15 18:53:17 14° 271° (W) 18:55:21 437.300
SEEDS 25 Feb 18:52:57 18:57:08 64° 73° (ENE) 19:01:21 437.485
CUTE-I 25 Feb 18:54:43 18:58:40 21° 270° (W) 19:02:38 437.470
UWE-3 25 Feb 18:55:27 18:59:30 33° 66° (ENE) 19:03:38 435.000/436.395/437.385
ZACube-1 25 Feb 19:15:33 19:19:34 33° 66° (ENE) 19:23:39 437.345
RS-15 25 Feb 19:22:29 19:34:32 64° 321° (NW) 19:46:53 29.354- 29.394
CUTE 1.7 + AOD 2 25 Feb 19:32:31 19:36:28 36° 264° (W) 19:40:26 437.475
HO-68 25 Feb 19:35:43 19:42:34 46° 261° (W) 19:49:27 435.675
YUBILEINY 25 Feb 19:45:19 19:52:27 27° 58° (ENE) 19:59:31 435.215
PCSat 25 Feb 19:50:49 19:53:37 14° 344° (NNW) 19:56:26 145.827
CUBEBUG 2 25 Feb 19:55:05 19:59:24 47° 262° (W) 20:03:53 437.445
AO-73 25 Feb 20:03:10 20:07:39 82° 74° (ENE) 20:12:15 145.935
Oscar 11 25 Feb 20:09:29 20:13:51 84° 75° (ENE) 20:18:14 .
DELFI C3 25 Feb 20:10:21 20:13:48 29° 67° (ENE) 20:17:15 145.870
STRAND 1 25 Feb 20:12:38 20:17:46 66° 289° (WNW) 20:22:51 437.568
AAUSAT CUBESAT 2 25 Feb 20:16:52 20:20:40 34° 264° (W) 20:24:28 437.432
NO-84 25 Feb 20:19:24 20:22:47 34° 359° (N) 20:26:27 435.350 FM
SEEDS 25 Feb 20:30:50 20:33:16 15° 271° (W) 20:35:42 437.485
UWE-3 25 Feb 20:31:54 20:35:56 32° 266° (W) 20:40:05 435.000/436.395/437.385
PRISM 25 Feb 20:36:11 20:38:05 13° 89° (E) 20:39:58 437.425
LO-87 25 Feb 20:47:31 20:47:56 10° 58° (ENE) 20:48:20 145.935 - 145.965
ZACube-1 25 Feb 20:51:46 20:55:49 33° 265° (W) 20:59:58 437.345
UNISAT 6 25 Feb 20:56:03 20:57:32 11° 85° (E) 20:59:01 437.425
TIGRISAT 25 Feb 20:56:40 20:57:37 11° 84° (E) 20:58:35 435.000
PCSat 25 Feb 21:37:03 21:39:29 13° 11° (N) 21:41:55 145.827
RS-15 25 Feb 21:38:34 21:49:56 40° 353° (N) 22:01:18 29.354- 29.394
YUBILEINY 25 Feb 21:41:40 21:50:27 85° 263° (W) 21:59:10 435.215
AO-73 25 Feb 21:42:24 21:44:31 13° 274° (W) 21:46:39 145.935
DELFI C3 25 Feb 21:45:09 21:48:35 28° 265° (W) 21:52:02 145.870
Oscar 11 25 Feb 21:48:56 21:50:35 12° 273° (W) 21:52:15 .
STRAND 1 25 Feb 21:53:52 21:56:00 13° 309° (NW) 21:58:08 437.568
SO-50 25 Feb 21:56:50 22:01:02 33° 119° (ESE) 22:05:11 436.795
NO-84 25 Feb 21:57:15 22:01:02 50° 19° (NNE) 22:05:07 435.350 FM
PRISM 25 Feb 22:09:47 22:13:51 70° 287° (WNW) 22:17:55 437.425
ESTCUBE 1 25 Feb 22:13:09 22:17:30 49° 70° (ENE) 22:21:51 437.505/2401.250
LO-87 25 Feb 22:17:16 22:20:48 82° 257° (WSW) 22:24:23 145.935 - 145.965
FO-29 25 Feb 22:27:24 22:34:49 47° 95° (E) 22:41:34 435.910
DX 1 25 Feb 22:27:56 22:30:12 14° 57° (ENE) 22:32:28 434.975-435.025
UNISAT 6 25 Feb 22:30:15 22:35:00 83° 105° (ESE) 22:39:41 437.425
TIGRISAT 25 Feb 22:30:21 22:35:06 78° 103° (ESE) 22:39:47 435.000
VELOX 1 25 Feb 22:36:26 22:40:18 31° 65° (ENE) 22:44:11 145.980
UKube-1 25 Feb 22:39:01 22:41:06 13° 56° (ENE) 22:43:12 .
O/OREOS (USA 219) 25 Feb 22:39:46 22:44:06 51° 110° (ESE) 22:48:30 437.305
SPROUT 25 Feb 22:40:12 22:43:47 27° 65° (ENE) 22:47:24 437.525
50 SAT 25 Feb 22:44:13 22:46:54 21° 65° (ENE) 22:49:36 437.505
DUCHIFAT 1 25 Feb 23:11:18 23:14:27 20° 92° (E) 23:17:35 145.980
AIST 2D 25 Feb 23:12:03 23:15:21 34° 97° (E) 23:18:37 435.315
PCSat 25 Feb 23:20:09 23:24:48 28° 36° (NE) 23:29:26 145.827
EO-79 25 Feb 23:22:25 23:26:12 29° 95° (E) 23:29:57 145.935-145.965
NO-84 25 Feb 23:34:53 23:38:48 49° 218° (SW) 23:42:57 435.350 FM
SO-50 25 Feb 23:36:57 23:41:25 44° 318° (NW) 23:45:50 436.795
NANOSAT C BR1 25 Feb 23:38:50 23:42:53 39° 98° (E) 23:46:53 145.865
POLYITAN 1 25 Feb 23:39:56 23:44:04 43° 99° (E) 23:48:10 437.675
YUBILEINY 25 Feb 23:39:58 23:45:57 21° 285° (WNW) 23:51:54 435.215
QB50P2 25 Feb 23:42:53 23:47:06 50° 100° (E) 23:51:16 145.880/145.840
ESTCUBE 1 25 Feb 23:51:06 23:54:34 21° 268° (W) 23:58:03 437.505/2401.250
RS-15 25 Feb 23:54:08 00:06:04 48° 26° (NNE) 00:17:42 29.354- 29.394
DX 1 26 Feb 00:01:28 00:05:48 84° 258° (WSW) 00:10:09 434.975-435.025
BUGSAT 1 26 Feb 00:05:25 00:08:59 26° 94° (E) 00:12:33 437.445
TIGRISAT 26 Feb 00:08:13 00:11:12 17° 302° (WNW) 00:14:11 435.000
UNISAT 6 26 Feb 00:08:15 00:11:04 16° 303° (WNW) 00:13:55 437.425
UKube-1 26 Feb 00:12:12 00:16:31 88° 263° (W) 00:20:51 .
FO-29 26 Feb 00:12:30 00:19:49 47° 297° (WNW) 00:26:34 435.910
VELOX 1 26 Feb 00:12:47 00:16:43 32° 264° (W) 00:20:41 145.980
SPROUT 26 Feb 00:15:39 00:19:35 36° 263° (W) 00:23:34 437.525
50 SAT 26 Feb 00:16:43 00:19:52 31° 263° (W) 00:23:02 437.505
Oscar 19 26 Feb 00:19:19 00:21:39 13° 86° (E) 00:23:58 437.125/150
O/OREOS (USA 219) 26 Feb 00:20:07 00:23:48 24° 311° (NW) 00:27:32 437.305
